星链-32096 (STARLINK-32096 )

导读

STARLINK-32096是美国太空探索技术公司星链互联网卫星星座中的一颗卫星,于2024年5月8日发射入轨,属于星链项目扩容组网的组成部分。星链旨在通过近地轨道卫星群,为全球提供高速互联网接入服务,该卫星的入轨进一步扩充了星座的覆盖范围与服务能力。

Basic Information
目录编号:
59698
目录名称:
STARLINK-32096
国际标识:
2024-086S
轨道中心:
EARTH
卫星名称:
星链-32096
卫星全名:
星链-32096 (STARLINK-32096 )
卫星状态:
在轨 (已飞行771 天)
发射日期:
2024-05-08 UTC
国别 :
美国 (US)
星等 :
--
Orbit Information
数据来源 国际轨道数据 AOE轨道数据
星历时间 2026-06-16T18:19:59+0800
1天前
查看轨道信息
2026-06-17T02:00:00+0800
1天前
查看轨道信息
半长轴 6861.194km 6861.173km
偏心率 0.0001467 0.0001423
轨道倾角 43.001° 42.999°
近地点辐角 277.113° 272.683°
升交点赤经 222.228° 220.429°
平近点角 82.956° 46.217°
近地点 482.05km 482.059km
远地点 484.064km 484.013km
周期 94.267分钟 94.266分钟
每日圈数 15.275774 15.275847
Detailed Information
固有亮度:
5
最大亮度:
1.5
卫星平台:
Starlink v2.0 mini
覆盖范围:
全球
运营商:
太空探索技术公司
运营商所在国:
美国
制造商(研发单位):
太空探索技术公司
制造商所在国:
美国
使用方式:
暂无
Satellite Introduction
星链(Starlink)计划是由太空探索技术公司(SpaceX)提出的一个巨型低轨卫星互联网星座项目,计划在2019年至2024年间在太空搭建由约1.2万颗卫星组成的“星链”网络,其中1584颗将部署在地球上空550千米处的近地轨道,并从2020年开始工作。该卫星仍在工作。
2D Orbit Map
3D Orbit Map
Orbit Altitude Analysis Chart
Orbit Inclination Analysis Chart
Orbit Comprehensive Analysis Chart
View Comprehensive Chart